Other Surface Observations
Issued by NWS Charleston, SC

Home | Current Version | Previous Version | Text Only | Print | Product List | Glossary On
Versions: 1 2 3 4 5 6 7 8 9 10 11 12 13 14 15 16 17 18 19 20 21 22 23 24 25 26 27 28 29 30 31 32 33 34 35 36 37 38 39 40 41 42 43 44 45 46 47 48 49 50
000
SXUS52 KCHS 011827
OSOCHS

MARINE OBSERVATIONS
NATIONAL WEATHER SERVICE CHARLESTON SC
200 PM EDT SAT AUG 01 2015

...DOWNTOWN CHARLESTON AND HARBOR...

CITY           SKY/WX    TMP DP  RH WIND       PRES   REMARKS
WATERFRONT PRK   N/A     77  75  93 SE9       29.93S

...LAKE MOULTRIE...

CITY           SKY/WX    TMP DP  RH WIND       PRES   REMARKS
PINOPOLIS      NOT AVBL

...LAKE AND SUPPLEMENTAL COASTAL OBSERVATIONS...

STATION/POSITION TIME  TEMP    WIND        PRES    WAVE   SWELL
                       AIR SEA DIR/SP/G            HT/PER HT/PER/DIR
                 (UTC) (F)     (DEG/KT/KT) (MB)    (FT/S) (FT/S/D)
FORT PULASKI     1800   86 86  110/  3/  5 1013.5F
SAPELO ISLAND    1800   84      30/  4     1013.0F
UPR LAKE MARION  NOT AVBL
WINYAH BAY       1700   83     160/  7     1014.0
LAKE MURRAY      1800   90     100/  3/  7 1012.9F
ACE BASIN NERRS  1745   79      50/  7     1014.0S


...C-MAN AND BUOY OBSERVATIONS...

STATION/POSITION TIME  TEMP    WIND        PRES    WAVE   SWELL
                       AIR SEA DIR/SP/G            HT/PER HT/PER/DIR
                 (UTC) (F)     (DEG/KT/KT) (MB)    (FT/S) (FT/S/D)
BUOY 41004       1750   78 84  180/  4/  6 1013.5F   3/ 7   3/ 7
BUOY 41008       1750   81 84  220/  6/  8 1013.9F   3/ 6   3/160/ 6
FOLLY BEACH CMAN 1800   78     150/ 15/ 17 1014.3F
CAPERS NS BUOY   1708   80     150/ 12/ 16 1014.6R
FRIPP NS BUOY    1700   87     220/  4/  6 1013.8R
5E ST. MARYS GA  1721      84                N/A     3/ 6


STATION/POSITION TIME  TEMP    WIND        PRES    WAVE   SWELL
                       AIR SEA DIR/SP/G            HT/PER HT/PER/DIR
                 (UTC) (F)     (DEG/KT/KT) (MB)    (FT/S) (FT/S/D)
FRYING PAN BUOY  1750   81 83  200/ 10/ 12 1014.4S   4/ 7   3/160/ 7
BUOY 41025       1750   79 85  170/ 17/ 21 1013.0F   3/ 8   2/190/ 8
CAPE LOOKOUT NC  1800   83     240/ 10/ 12 1012.6F
BUOY 41002       1750   84 81  230/ 17/ 21 1016.3F   6/ 7   2/ 30/10
BUOY 41010       1720   80 84  170/ 14/ 17 1016.5F
ST AUGUSTINE FL  1800   76 82  240/ 11/ 15 1014.7R

$$



USA.gov is the U.S. government's official web portal to all federal, state and local government web resources and services.